Total_Precipitation_Accumulation
0.20 0.17 0.16 0.19 0.22 0.26 0.31 0.37 0.54 0.70 0.86 0.99 1.13 1.38 1.54 1.64 1.63 1.63 1.70 1.62 1.44 1.52 1.63 1.60 1.82 1.89 1.86 1.85 1.80 1.92 1.93 1.66 1.48 1.73 1.69 1.28 1.01 0.90 0.91 0.96 0.99 1.03 1.03
0.13 0.12 0.11 0.12 0.13 0.16 0.22 0.30 0.44 0.68 0.92 1.15 1.33 1.52 1.84 2.00 2.00 2.06 2.01 1.96 1.85 1.87 1.79 1.87 2.08 2.13 2.23 2.32 2.16 2.28 2.33 2.03 1.73 2.09 2.48 1.98 1.57 1.03 0.84 0.93 1.02 1.11 1.14
0.10 0.11 0.09 0.09 0.08 0.10 0.14 0.21 0.34 0.57 0.88 1.19 1.45 1.64 1.88 2.14 2.24 2.15 2.10 2.13 2.21 2.26 2.15 2.11 2.23 2.25 2.32 2.51 2.54 2.49 2.55 2.46 2.16 2.12 2.51 2.36 2.03 1.60 1.05 0.94 1.02 1.15 1.23
0.12 0.11 0.09 0.08 0.08 0.11 0.13 0.17 0.32 0.48 0.72 0.99 1.32 1.57 1.84 2.15 2.22 2.20 2.17 2.21 2.33 2.42 2.38 2.33 2.39 2.39 2.35 2.47 2.56 2.53 2.73 2.88 2.59 2.34 2.11 2.01 2.02 1.99 1.54 1.13 1.07 1.23 1.29
0.16 0.14 0.13 0.12 0.13 0.15 0.18 0.25 0.38 0.54 0.74 0.98 1.30 1.63 1.82 1.99 2.19 2.20 2.11 2.05 2.12 2.14 2.12 2.24 2.39 2.41 2.38 2.39 2.57 2.68 2.85 2.83 2.73 2.58 2.44 2.25 2.06 1.72 1.78 1.63 1.37 1.35 1.26
0.16 0.19 0.23 0.25 0.24 0.25 0.30 0.38 0.51 0.72 0.87 0.97 1.12 1.29 1.50 1.78 1.92 2.02 2.06 2.07 2.07 1.95 1.87 1.98 2.09 2.18 2.23 2.21 2.27 2.42 2.56 2.73 2.86 2.78 2.59 2.47 2.33 2.13 2.00 1.72 1.55 1.60 1.43
0.27 0.34 0.44 0.42 0.40 0.42 0.50 0.57 0.63 0.74 0.79 0.79 0.87 1.00 1.16 1.38 1.52 1.61 1.81 1.88 1.92 1.86 1.81 1.79 1.87 1.95 1.99 2.09 2.26 2.25 2.27 2.45 2.64 2.62 2.55 2.53 2.31 2.19 2.22 2.05 1.72 1.62 1.50
0.40 0.55 0.66 0.71 0.67 0.65 0.65 0.62 0.63 0.61 0.62 0.66 0.73 0.80 0.87 1.01 1.13 1.21 1.37 1.50 1.50 1.48 1.47 1.53 1.63 1.78 1.88 1.98 2.12 2.16 2.12 2.20 2.26 2.27 2.36 2.43 2.33 2.13 2.07 2.09 2.15 1.89 1.65
0.57 0.74 0.86 0.94 0.89 0.81 0.74 0.69 0.69 0.65 0.59 0.61 0.69 0.75 0.80 0.82 0.85 0.89 0.88 0.97 1.06 1.09 1.14 1.20 1.34 1.54 1.68 1.75 1.86 2.00 1.99 2.04 2.05 2.10 2.17 2.17 2.22 2.07 1.92 1.87 1.95 2.05 1.83
0.80 0.91 0.99 0.98 0.97 1.01 0.96 0.78 0.72 0.72 0.66 0.74 0.75 0.72 0.71 0.69 0.68 0.71 0.77 0.78 0.87 0.98 1.07 1.09 1.17 1.29 1.39 1.50 1.68 1.82 1.90 1.92 1.89 1.88 1.95 2.00 2.05 2.06 2.02 1.98 1.95 1.92 1.86
1.00 1.02 1.08 1.02 0.90 0.90 0.88 0.86 0.80 0.74 0.75 0.81 0.81 0.71 0.68 0.68 0.68 0.65 0.67 0.76 0.85 0.95 1.00 1.06 1.11 1.15 1.24 1.29 1.41 1.56 1.70 1.73 1.74 1.65 1.68 1.79 1.85 2.02 2.06 2.01 1.96 1.93 1.85
0.95 0.98 1.05 0.97 0.82 0.77 0.68 0.72 0.80 0.81 0.87 0.87 0.80 0.72 0.72 0.75 0.80 0.78 0.70 0.71 0.77 0.79 0.90 1.04 1.03 1.05 1.10 1.18 1.29 1.39 1.45 1.54 1.50 1.42 1.44 1.56 1.63 1.77 1.89 1.99 1.90 1.90 1.85
0.73 0.72 0.74 0.80 0.76 0.72 0.65 0.71 0.76 0.82 0.86 0.88 0.86 0.77 0.66 0.70 0.75 0.76 0.68 0.66 0.70 0.74 0.88 1.02 1.14 1.07 0.97 1.06 1.15 1.22 1.25 1.25 1.21 1.20 1.22 1.27 1.36 1.50 1.62 1.73 1.82 1.83 1.76
0.53 0.51 0.47 0.53 0.55 0.57 0.62 0.67 0.77 0.89 0.94 0.92 0.86 0.82 0.76 0.78 0.73 0.64 0.62 0.64 0.63 0.61 0.68 0.83 0.94 0.99 0.95 0.91 0.91 0.97 1.12 1.12 1.04 0.96 0.95 0.97 1.01 1.14 1.28 1.39 1.54 1.69 1.82
0.38 0.36 0.33 0.33 0.35 0.38 0.46 0.52 0.66 0.81 0.93 0.98 0.93 0.86 0.80 0.70 0.63 0.57 0.51 0.52 0.48 0.48 0.54 0.70 0.88 0.94 0.94 0.98 0.97 0.90 0.93 0.99 1.01 0.94 0.86 0.79 0.78 0.87 0.96 1.08 1.33 1.53 1.68
0.27 0.24 0.24 0.22 0.24 0.30 0.36 0.37 0.49 0.63 0.74 0.80 0.81 0.82 0.78 0.62 0.54 0.48 0.41 0.40 0.41 0.42 0.45 0.53 0.69 0.86 0.84 0.99 1.04 0.98 0.90 0.90 0.90 0.90 0.90 0.89 0.84 0.73 0.68 0.74 0.90 1.14 1.36
0.23 0.21 0.20 0.21 0.23 0.30 0.32 0.33 0.42 0.53 0.58 0.62 0.65 0.67 0.63 0.49 0.44 0.35 0.31 0.34 0.36 0.38 0.41 0.47 0.59 0.74 0.89 0.92 0.83 0.92 0.93 0.89 0.90 0.87 0.87 0.91 0.89 0.93 0.83 0.76 0.74 0.78 0.95
0.16 0.21 0.18 0.17 0.19 0.24 0.29 0.37 0.40 0.42 0.43 0.47 0.50 0.49 0.48 0.43 0.36 0.28 0.28 0.30 0.34 0.37 0.39 0.43 0.49 0.57 0.76 0.81 0.72 0.90 0.94 0.95 0.94 0.92 0.94 0.98 1.02 0.98 1.08 1.05 0.96 0.90 0.89
0.07 0.10 0.09 0.09 0.10 0.10 0.11 0.14 0.17 0.20 0.24 0.32 0.38 0.41 0.41 0.37 0.32 0.27 0.33 0.40 0.40 0.39 0.38 0.39 0.41 0.44 0.53 0.62 0.60 0.74 0.88 0.98 0.97 0.88 0.89 0.95 0.99 1.17 1.21 1.12 1.10 1.03 0.98
0.02 0.03 0.03 0.03 0.03 0.03 0.03 0.03 0.05 0.10 0.13 0.20 0.25 0.29 0.32 0.35 0.38 0.46 0.54 0.56 0.52 0.46 0.42 0.39 0.38 0.40 0.43 0.56 0.45 0.57 0.74 0.91 1.00 0.94 0.90 1.06 1.03 1.04 0.99 0.95 1.14 1.13 1.03
0.01 0.01 0.01 0.01 0.01 0.00 0.00 0.01 0.02 0.02 0.02 0.04 0.10 0.18 0.29 0.35 0.45 0.56 0.59 0.58 0.52 0.44 0.40 0.38 0.36 0.36 0.45 0.60 0.54 0.61 0.71 0.83 0.92 0.95 0.97 0.94 1.02 0.85 0.80 0.85 1.00 1.15 1.09
0.01 0.00 0.00 0.00 0.00 0.00 0.00 0.00 0.00 0.01 0.01 0.03 0.07 0.13 0.20 0.29 0.43 0.51 0.51 0.50 0.49 0.46 0.42 0.43 0.40 0.42 0.53 0.60 0.61 0.61 0.66 0.74 0.81 0.84 0.76 0.75 0.82 0.68 0.63 0.62 0.75 0.93 0.95
0.01 0.00 0.00 0.00 0.00 0.00 0.00 0.00 0.00 0.00 0.00 0.01 0.03 0.06 0.11 0.22 0.36 0.39 0.39 0.43 0.45 0.44 0.43 0.42 0.40 0.39 0.47 0.57 0.67 0.57 0.50 0.49 0.57 0.64 0.63 0.56 0.53 0.52 0.48 0.52 0.61 0.68 0.81
0.01 0.00 0.00 0.00 0.00 0.00 0.00 0.00 0.00 0.00 0.00 0.00 0.00 0.01 0.02 0.05 0.10 0.15 0.20 0.26 0.32 0.33 0.32 0.35 0.39 0.42 0.42 0.43 0.48 0.51 0.48 0.42 0.42 0.42 0.36 0.35 0.38 0.44 0.46 0.47 0.49 0.55 0.75
0.01 0.00 0.00 0.00 0.00 0.00 0.00 0.00 0.00 0.00 0.00 0.00 0.00 0.01 0.02 0.03 0.04 0.06 0.09 0.13 0.16 0.19 0.25 0.31 0.34 0.35 0.39 0.39 0.42 0.44 0.44 0.49 0.53 0.55 0.47 0.40 0.39 0.40 0.44 0.46 0.52 0.63 0.73
0.01 0.01 0.00 0.00 0.00 0.00 0.00 0.00 0.00 0.00 0.00 0.00 0.00 0.00 0.01 0.02 0.02 0.03 0.03 0.05 0.07 0.09 0.12 0.15 0.18 0.19 0.25 0.32 0.35 0.38 0.40 0.43 0.49 0.53 0.55 0.54 0.55 0.56 0.54 0.52 0.49 0.50 0.58